Montgomery, NY

7:08 AM EDT on March 28, 2017 (GMT -0400)
Orange County

Weather History for KMGJ - November, 2012

Change the Weather History Date:

Sunday, November 4, 2012

  Actual Average (KSWF) Record (KSWF)
Temperature  
Mean Temperature 44 °F -  
Max Temperature 50 °F 52 °F 77 °F (1990)
Min Temperature 37 °F 34 °F 21 °F (1986)
Degree Days  
Heating Degree Days 22    
Moisture  
Dew Point 30 °F    
Average Humidity 61    
Maximum Humidity 79    
Minimum Humidity 46    
Precipitation  
Precipitation 0.00 in - - ()
Sea Level Pressure  
Sea Level Pressure 29.95 in    
Wind  
Wind Speed 8 mph (NW)    
Max Wind Speed 13 mph    
Max Gust Speed 18 mph    
Visibility 10 miles    
Events      
Averages and records for this station are not official NWS values.
T = Trace of Precipitation, MM = Missing Value Source: NWS Daily Summary

Daily Weather History Graph

Daily Weather History Graph

Search for Another Location

Airport or City:

Trip Planner

Search our weather history database for the weather conditions in past years. The results will help you decide how hot, cold, wet, or windy it might be!

Date:

Astronomy

Nov. 04, 2012 Rise Set
Actual Time 6:32 AM EST 4:47 PM EST
Civil Twilight 6:03 AM EST 5:16 PM EST
Nautical Twilight 5:31 AM EST 5:49 PM EST
Astronomical Twilight 4:58 AM EST 6:21 PM EST
Moon 9:22 PM EST (11/4) 11:15 AM EST (11/4)
Length of Visible Light 11h 12m
Length of Day
10h 14m
Waning Gibbous, 72% of the Moon is Illuminated
Nov 4
Waning Gibbous
Nov 6
Last Quarter
Nov 13
New
Nov 20
First Quarter
Nov 28
Full

Hourly Weather History & Observations

Time (EST) Temp. Windchill Dew Point Humidity Pressure Visibility Wind Dir Wind Speed Gust Speed Precip Events Conditions
12:54 AM 39.9 °F 35.8 °F 30.0 °F 68% 29.94 in 10.0 mi NW 5.8 mph - N/A   Clear
1:54 AM 37.9 °F 31.5 °F 30.9 °F 76% 29.94 in 10.0 mi WNW 9.2 mph - N/A   Clear
1:54 AM 37.0 °F 32.4 °F 30.9 °F 79% 29.94 in 10.0 mi NW 5.8 mph - N/A   Clear
2:54 AM 39.0 °F 33.4 °F 28.9 °F 67% 29.93 in 10.0 mi NW 8.1 mph - N/A   Clear
3:54 AM 39.0 °F 34.0 °F 28.9 °F 67% 29.93 in 10.0 mi NW 6.9 mph - N/A   Clear
4:54 AM 39.0 °F 32.8 °F 28.9 °F 67% 29.94 in 10.0 mi NW 9.2 mph - N/A   Clear
5:54 AM 37.9 °F 32.1 °F 28.9 °F 70% 29.95 in 10.0 mi WNW 8.1 mph - N/A   Clear
6:54 AM 37.9 °F 31.5 °F 30.0 °F 73% 29.96 in 10.0 mi WNW 9.2 mph - N/A   Clear
7:54 AM 41.0 °F 33.9 °F 30.0 °F 65% 29.97 in 10.0 mi NW 12.7 mph 17.3 mph N/A   Clear
8:54 AM 44.1 °F 40.1 °F 30.0 °F 58% 29.96 in 10.0 mi NW 6.9 mph - N/A   Clear
9:54 AM 46.0 °F 41.4 °F 30.0 °F 54% 29.96 in 10.0 mi WNW 9.2 mph - N/A   Clear
10:54 AM 48.0 °F - 30.9 °F 52% 29.95 in 10.0 mi WNW 10.4 mph - N/A   Clear
11:54 AM 50.0 °F - 30.9 °F 48% 29.93 in 10.0 mi WNW 5.8 mph - N/A   Mostly Cloudy
12:54 PM 50.0 °F - 30.9 °F 48% 29.92 in 10.0 mi WNW 10.4 mph 17.3 mph N/A   Partly Cloudy
1:54 PM 50.0 °F - 30.0 °F 46% 29.92 in 10.0 mi NW 11.5 mph 16.1 mph N/A   Partly Cloudy
2:54 PM 48.0 °F - 30.9 °F 52% 29.93 in 10.0 mi West 11.5 mph - N/A   Mostly Cloudy
3:54 PM 46.0 °F 40.2 °F 30.0 °F 54% 29.94 in 10.0 mi NW 12.7 mph 18.4 mph N/A   Overcast
4:54 PM 44.1 °F 39.5 °F 28.0 °F 53% 29.95 in 10.0 mi NW 8.1 mph - N/A   Overcast
5:54 PM 43.0 °F 36.8 °F 28.0 °F 56% 29.96 in 10.0 mi NNW 11.5 mph - N/A   Overcast
6:54 PM 42.1 °F 39.2 °F 30.0 °F 62% 29.97 in 10.0 mi NW 4.6 mph - N/A   Overcast
7:54 PM 41.0 °F 35.2 °F 30.0 °F 65% 29.98 in 10.0 mi NNW 9.2 mph - N/A   Overcast
8:54 PM 41.0 °F 36.4 °F 28.9 °F 62% 29.99 in 10.0 mi NW 6.9 mph - N/A   Overcast
9:54 PM 39.9 °F 33.9 °F 28.0 °F 63% 29.99 in 10.0 mi NW 9.2 mph - N/A   Overcast
10:54 PM 39.9 °F 35.8 °F 27.0 °F 60% 29.98 in 10.0 mi NNW 5.8 mph - N/A   Overcast